Wildwood, NJ

5:24 AM EST on February 25, 2018 (GMT -0500)
Cape May County

Weather History for KWWD - November, 2012

Change the Weather History Date:

Wednesday, November 7, 2012

  Actual Average Record
Temperature  
Mean Temperature 38 °F -  
Max Temperature 42 °F 55 °F 75 °F (2002)
Min Temperature 33 °F 41 °F 33 °F (2012)
Degree Days  
Heating Degree Days 28    
Moisture  
Dew Point 33 °F    
Average Humidity 82    
Maximum Humidity 93    
Minimum Humidity 61    
Precipitation  
Precipitation 0.53 in - - ()
Sea Level Pressure  
Sea Level Pressure 29.82 in    
Wind  
Wind Speed 13 mph (North)    
Max Wind Speed 16 mph    
Max Gust Speed 29 mph    
Visibility 9 miles    
Events      
Averages and records for this station are not official NWS values.
T = Trace of Precipitation, MM = Missing Value Source: NWS Daily Summary

Daily Weather History Graph

Daily Weather History Graph

Search for Another Location

Airport or City:

Trip Planner

Search our weather history database for the weather conditions in past years. The results will help you decide how hot, cold, wet, or windy it might be!

Date:

Astronomy

Nov. 07, 2012 Rise Set
Actual Time 6:34 AM EST 4:52 PM EST
Civil Twilight 6:06 AM EST 5:20 PM EST
Nautical Twilight 5:34 AM EST 5:51 PM EST
Astronomical Twilight 5:02 AM EST 6:23 PM EST
Moon No Moon Rise 12:56 PM EST (11/7)
Length of Visible Light 11h 14m
Length of Day
10h 17m
Last Quarter, 43% of the Moon is Illuminated
Nov 7
Last Quarter
Nov 13
New
Nov 20
First Quarter
Nov 28
Full
Dec 6
Last Quarter

Hourly Weather History & Observations

Time (EST) Temp. Windchill Dew Point Humidity Pressure Visibility Wind Dir Wind Speed Gust Speed Precip Events Conditions
12:15 AM 42.8 °F 36.2 °F 30.2 °F 61% 29.92 in 10.0 mi North 12.7 mph - N/A   Overcast
12:35 AM 41.0 °F 34.3 °F 30.2 °F 65% 29.90 in 10.0 mi North 11.5 mph 17.3 mph N/A   Overcast
12:55 AM 41.0 °F 33.5 °F 30.2 °F 65% 29.90 in 10.0 mi North 13.8 mph 19.6 mph N/A   Overcast
1:15 AM 42.8 °F 36.2 °F 30.2 °F 61% 29.90 in 10.0 mi North 12.7 mph 18.4 mph N/A   Overcast
1:35 AM 42.8 °F 35.8 °F 30.2 °F 61% 29.89 in 10.0 mi North 13.8 mph 21.9 mph N/A   Overcast
1:55 AM 42.8 °F 35.4 °F 30.2 °F 61% 29.88 in 10.0 mi North 15.0 mph 20.7 mph N/A   Overcast
2:15 AM 42.8 °F 36.6 °F 32.0 °F 66% 29.86 in 10.0 mi North 11.5 mph 21.9 mph N/A   Overcast
2:35 AM 42.8 °F 35.4 °F 32.0 °F 66% 29.85 in 10.0 mi North 15.0 mph - N/A   Overcast
2:55 AM 42.8 °F 35.8 °F 33.8 °F 70% 29.83 in 10.0 mi NNE 13.8 mph - N/A   Overcast
3:15 AM 42.8 °F 35.1 °F 33.8 °F 70% 29.82 in 10.0 mi North 16.1 mph 21.9 mph N/A   Overcast
3:55 AM 42.8 °F 35.8 °F 35.6 °F 76% 29.82 in 10.0 mi North 13.8 mph 23.0 mph N/A   Overcast
4:15 AM 42.8 °F 35.4 °F 35.6 °F 76% 29.82 in 10.0 mi North 15.0 mph 19.6 mph N/A   Overcast
4:35 AM 42.8 °F 36.6 °F 37.4 °F 81% 29.83 in 10.0 mi NNE 11.5 mph 17.3 mph N/A   Overcast
4:55 AM 42.8 °F 37.0 °F 37.4 °F 81% 29.83 in 10.0 mi North 10.4 mph - N/A   Overcast
5:15 AM 42.8 °F 36.6 °F 37.4 °F 81% 29.84 in 10.0 mi North 11.5 mph - N/A   Overcast
5:35 AM 42.8 °F 35.8 °F 37.4 °F 81% 29.84 in 9.0 mi North 13.8 mph - N/A   Overcast
5:55 AM 42.8 °F 36.2 °F 37.4 °F 81% 29.84 in 8.0 mi North 12.7 mph 19.6 mph N/A   Overcast
6:15 AM 42.8 °F 35.8 °F 37.4 °F 81% 29.84 in 10.0 mi North 13.8 mph 19.6 mph 0.02 in   Overcast
6:35 AM 41.0 °F 35.2 °F 37.4 °F 87% 29.84 in 10.0 mi North 9.2 mph - 0.05 in   Overcast
6:55 AM 39.2 °F 33.0 °F 37.4 °F 93% 29.85 in 7.0 mi NNW 9.2 mph - 0.06 in   Overcast
7:15 AM 39.2 °F 32.0 °F 35.6 °F 87% 29.85 in 10.0 mi North 11.5 mph - 0.01 in   Overcast
7:35 AM 39.2 °F 31.2 °F 35.6 °F 87% 29.84 in 10.0 mi North 13.8 mph 19.6 mph 0.02 in   Overcast
7:55 AM 39.2 °F 31.2 °F 35.6 °F 87% 29.83 in 10.0 mi North 13.8 mph 18.4 mph 0.02 in   Overcast
8:15 AM 39.2 °F 31.2 °F 35.6 °F 87% 29.83 in 10.0 mi North 13.8 mph 20.7 mph N/A   Mostly Cloudy
8:35 AM 39.2 °F 31.6 °F 35.6 °F 87% 29.81 in 10.0 mi North 12.7 mph 21.9 mph 0.01 in   Overcast
8:55 AM 39.2 °F 32.0 °F 35.6 °F 87% 29.81 in 10.0 mi North 11.5 mph 21.9 mph 0.02 in   Overcast
9:15 AM 37.4 °F 28.9 °F 33.8 °F 87% 29.81 in 10.0 mi North 13.8 mph 23.0 mph 0.02 in   Overcast
9:35 AM 37.4 °F 28.9 °F 33.8 °F 87% 29.81 in 10.0 mi North 13.8 mph 21.9 mph 0.03 in   Overcast
9:55 AM 37.4 °F 28.9 °F 33.8 °F 87% 29.81 in 10.0 mi North 13.8 mph 21.9 mph 0.04 in   Overcast
10:15 AM 37.4 °F 29.3 °F 33.8 °F 87% 29.81 in 10.0 mi North 12.7 mph - N/A   Overcast
10:35 AM 37.4 °F 29.3 °F 33.8 °F 87% 29.81 in 10.0 mi North 12.7 mph 23.0 mph 0.01 in   Overcast
10:55 AM 37.4 °F 28.5 °F 33.8 °F 87% 29.81 in 10.0 mi North 15.0 mph 23.0 mph 0.03 in   Overcast
11:15 AM 37.4 °F 29.8 °F 33.8 °F 87% 29.81 in 10.0 mi North 11.5 mph 23.0 mph 0.01 in   Overcast
11:35 AM 37.4 °F 29.8 °F 33.8 °F 87% 29.80 in 9.0 mi NNW 11.5 mph 20.7 mph 0.03 in   Overcast
11:55 AM 35.6 °F 27.1 °F 32.0 °F 87% 29.79 in 7.0 mi NNW 12.7 mph 20.7 mph 0.05 in   Overcast
12:15 PM 35.6 °F 27.1 °F 32.0 °F 87% 29.79 in 7.0 mi NNW 12.7 mph 20.7 mph 0.02 in   Overcast
12:35 PM 35.6 °F 26.2 °F 32.0 °F 87% 29.79 in 8.0 mi North 15.0 mph 20.7 mph 0.06 in   Overcast
12:55 PM 35.6 °F 26.6 °F 32.0 °F 87% 29.79 in 5.0 mi North 13.8 mph 24.2 mph 0.10 in   Overcast
1:15 PM 35.6 °F 26.6 °F 32.0 °F 87% 29.79 in 9.0 mi NNW 13.8 mph 27.6 mph 0.03 in   Overcast
1:35 PM 35.6 °F 25.9 °F 32.0 °F 87% 29.79 in 10.0 mi NNW 16.1 mph 24.2 mph 0.05 in   Overcast
1:55 PM 35.6 °F 26.2 °F 32.0 °F 87% 29.79 in 10.0 mi North 15.0 mph 21.9 mph 0.06 in   Overcast
2:15 PM 35.6 °F 27.1 °F 32.0 °F 87% 29.78 in 10.0 mi North 12.7 mph 25.3 mph 0.01 in   Overcast
2:35 PM 35.6 °F 26.6 °F 30.2 °F 81% 29.78 in 9.0 mi NNW 13.8 mph 28.8 mph 0.03 in   Overcast
2:55 PM 35.6 °F 27.5 °F 32.0 °F 87% 29.79 in 10.0 mi NNW 11.5 mph 24.2 mph 0.03 in   Overcast
3:15 PM 35.6 °F 28.0 °F 30.2 °F 81% 29.79 in 5.0 mi North 10.4 mph 21.9 mph 0.02 in   Overcast
3:35 PM 35.6 °F 27.1 °F 30.2 °F 81% 29.79 in 8.0 mi North 12.7 mph 25.3 mph 0.03 in   Overcast
3:55 PM 33.8 °F 24.8 °F 30.2 °F 87% 29.79 in 5.0 mi NNW 12.7 mph 23.0 mph 0.05 in   Overcast
4:15 PM 33.8 °F 24.3 °F 30.2 °F 87% 29.80 in 3.0 mi NNW 13.8 mph 23.0 mph 0.02 in   Overcast
4:35 PM 33.8 °F 25.3 °F 30.2 °F 87% 29.79 in 6.0 mi North 11.5 mph 19.6 mph 0.03 in   Overcast
4:55 PM 35.6 °F 27.1 °F 30.2 °F 81% 29.79 in 10.0 mi NNW 12.7 mph 21.9 mph 0.04 in   Overcast
5:15 PM 35.6 °F 26.2 °F 32.0 °F 87% 29.79 in 10.0 mi NNW 15.0 mph 24.2 mph 0.01 in   Overcast
5:35 PM 35.6 °F 28.0 °F 32.0 °F 87% 29.80 in 10.0 mi NNW 10.4 mph 21.9 mph 0.01 in   Overcast
5:55 PM 35.6 °F 27.5 °F 32.0 °F 87% 29.80 in 10.0 mi North 11.5 mph 23.0 mph 0.02 in   Overcast
6:15 PM 35.6 °F 26.6 °F 30.2 °F 81% 29.80 in 8.0 mi NNW 13.8 mph 21.9 mph N/A   Overcast
6:35 PM 35.6 °F 26.6 °F 32.0 °F 87% 29.80 in 9.0 mi North 13.8 mph 24.2 mph 0.01 in   Overcast
6:55 PM 35.6 °F 26.6 °F 32.0 °F 87% 29.81 in 10.0 mi North 13.8 mph 23.0 mph 0.01 in   Overcast
7:15 PM 35.6 °F 26.2 °F 32.0 °F 87% 29.80 in 10.0 mi North 15.0 mph 19.6 mph N/A   Overcast
7:35 PM 35.6 °F 25.9 °F 32.0 °F 87% 29.80 in 10.0 mi NNW 16.1 mph 23.0 mph N/A   Overcast
7:55 PM 35.6 °F 26.6 °F 30.2 °F 81% 29.80 in 10.0 mi North 13.8 mph 24.2 mph N/A   Overcast
8:15 PM 35.6 °F 27.1 °F 30.2 °F 81% 29.81 in 10.0 mi North 12.7 mph 20.7 mph N/A   Overcast
8:35 PM 35.6 °F 26.6 °F 32.0 °F 87% 29.81 in 10.0 mi North 13.8 mph 19.6 mph N/A   Overcast
8:55 PM 35.6 °F 27.1 °F 30.2 °F 81% 29.81 in 10.0 mi North 12.7 mph 24.2 mph N/A   Overcast
9:15 PM 35.6 °F 28.6 °F 32.0 °F 87% 29.81 in 10.0 mi North 9.2 mph 20.7 mph N/A   Overcast
9:35 PM 35.6 °F 28.0 °F 30.2 °F 81% 29.81 in 10.0 mi North 10.4 mph 19.6 mph N/A   Overcast
9:55 PM 35.6 °F 28.6 °F 30.2 °F 81% 29.81 in 10.0 mi North 9.2 mph 18.4 mph N/A   Overcast
10:15 PM 35.6 °F 27.5 °F 30.2 °F 81% 29.80 in 10.0 mi North 11.5 mph 19.6 mph N/A   Overcast
10:35 PM 35.6 °F 26.2 °F 30.2 °F 81% 29.79 in 10.0 mi North 15.0 mph 19.6 mph N/A   Overcast
10:55 PM 35.6 °F 28.0 °F 30.2 °F 81% 29.79 in 10.0 mi NNW 10.4 mph 20.7 mph N/A   Overcast
11:15 PM 35.6 °F 27.1 °F 30.2 °F 81% 29.79 in 10.0 mi North 12.7 mph 21.9 mph N/A   Overcast
11:35 PM 35.6 °F 27.1 °F 30.2 °F 81% 29.79 in 10.0 mi North 12.7 mph 20.7 mph N/A   Overcast
11:55 PM 35.6 °F 26.6 °F 30.2 °F 81% 29.79 in 10.0 mi North 13.8 mph 23.0 mph N/A   Overcast